Time,TemperatureF,DewpointF,PressureIn,WindDirection,WindDirectionDegrees,WindSpeedMPH,WindSpeedGustMPH,Humidity,HourlyPrecipIn,Conditions,Clouds,dailyrainin,SoftwareType,DateUTC
2013-05-23 00:03:00,76.0,76.0,29.95,WNW,296,0.0,0.0,100,0.00,,,0.00,,2013-05-23 04:03:00,
2013-05-23 00:12:00,76.0,76.0,29.95,WNW,296,0.0,0.0,100,0.00,,,0.00,,2013-05-23 04:12:00,
2013-05-23 00:22:00,76.0,76.0,29.95,WNW,296,0.0,0.0,100,0.00,,,0.00,,2013-05-23 04:22:00,
2013-05-23 00:33:00,75.0,75.0,29.95,WNW,296,0.0,0.0,100,0.00,,,0.00,,2013-05-23 04:33:00,
2013-05-23 00:43:00,75.0,75.0,29.95,WNW,296,0.0,0.0,100,0.00,,,0.00,,2013-05-23 04:43:00,
2013-05-23 00:52:00,75.0,75.0,29.95,WNW,296,0.0,0.0,100,0.00,,,0.00,,2013-05-23 04:52:00,
2013-05-23 01:02:00,75.0,75.0,29.95,WNW,297,0.0,0.0,100,0.00,,,0.00,,2013-05-23 05:02:00,
2013-05-23 01:11:00,75.0,75.0,29.96,WNW,297,0.0,0.0,100,0.00,,,0.00,,2013-05-23 05:11:00,
2013-05-23 01:22:00,75.0,75.0,29.96,WNW,297,0.0,0.0,100,0.00,,,0.00,,2013-05-23 05:22:00,
2013-05-23 01:32:00,75.0,75.0,29.95,WNW,296,0.0,0.0,100,0.00,,,0.00,,2013-05-23 05:32:00,
2013-05-23 01:42:00,74.0,74.0,29.95,WNW,297,0.0,0.0,100,0.00,,,0.00,,2013-05-23 05:42:00,
2013-05-23 01:52:00,74.0,74.0,29.95,WNW,297,0.0,0.0,100,0.00,,,0.00,,2013-05-23 05:52:00,
2013-05-23 02:02:00,74.0,74.0,29.94,WNW,296,0.0,0.0,100,0.00,,,0.00,,2013-05-23 06:02:00,
2013-05-23 02:12:00,74.0,74.0,29.94,WNW,296,0.0,0.0,100,0.00,,,0.00,,2013-05-23 06:12:00,
2013-05-23 02:21:00,74.0,74.0,29.94,WNW,296,0.0,0.0,100,0.00,,,0.00,,2013-05-23 06:21:00,
2013-05-23 02:32:00,74.0,74.0,29.93,WNW,296,0.0,0.0,100,0.00,,,0.00,,2013-05-23 06:32:00,
2013-05-23 02:42:00,74.0,74.0,29.93,WNW,296,0.0,0.0,100,0.00,,,0.00,,2013-05-23 06:42:00,
2013-05-23 02:52:00,73.0,73.0,29.93,WNW,297,0.0,0.0,100,0.00,,,0.00,,2013-05-23 06:52:00,
2013-05-23 03:02:00,73.0,73.0,29.94,WNW,296,0.0,0.0,100,0.00,,,0.00,,2013-05-23 07:02:00,
2013-05-23 03:11:00,73.0,73.0,29.94,WNW,296,0.0,0.0,100,0.00,,,0.00,,2013-05-23 07:11:00,
2013-05-23 03:21:00,72.0,72.0,29.94,WNW,296,0.0,0.0,100,0.00,,,0.00,,2013-05-23 07:21:00,
2013-05-23 03:32:00,73.0,73.0,29.94,WNW,296,0.0,0.0,100,0.00,,,0.00,,2013-05-23 07:32:00,
2013-05-23 03:42:00,73.0,73.0,29.94,WNW,296,0.0,0.0,100,0.00,,,0.00,,2013-05-23 07:42:00,
2013-05-23 03:59:00,73.0,73.0,29.94,WNW,296,0.0,0.0,100,0.00,,,0.00,,2013-05-23 07:59:00,
2013-05-23 04:11:00,72.0,72.0,29.94,WNW,297,0.0,0.0,100,0.00,,,0.00,,2013-05-23 08:11:00,
2013-05-23 04:22:00,72.0,72.0,29.95,WNW,297,0.0,0.0,100,0.00,,,0.00,,2013-05-23 08:22:00,
2013-05-23 04:32:00,72.0,72.0,29.95,WNW,296,0.0,0.0,100,0.00,,,0.00,,2013-05-23 08:32:00,
2013-05-23 04:42:00,72.0,72.0,29.95,WNW,296,0.0,0.0,100,0.00,,,0.00,,2013-05-23 08:42:00,
2013-05-23 04:52:00,72.0,72.0,29.95,WNW,296,0.0,0.0,100,0.00,,,0.00,,2013-05-23 08:52:00,
2013-05-23 05:01:00,72.0,72.0,29.95,WNW,296,0.0,0.0,100,0.00,,,0.00,,2013-05-23 09:01:00,
2013-05-23 05:11:00,72.0,72.0,29.95,WNW,296,0.0,0.0,100,0.00,,,0.00,,2013-05-23 09:11:00,
2013-05-23 05:22:00,73.0,73.0,29.96,WNW,296,0.0,1.0,100,0.00,,,0.00,,2013-05-23 09:22:00,
2013-05-23 05:33:00,73.0,73.0,29.96,WNW,296,0.0,0.0,100,0.00,,,0.00,,2013-05-23 09:33:00,
2013-05-23 05:42:00,73.0,73.0,29.96,WNW,296,0.0,0.0,100,0.00,,,0.00,,2013-05-23 09:42:00,
2013-05-23 05:53:00,73.0,73.0,29.96,WNW,295,0.0,0.0,100,0.00,,,0.00,,2013-05-23 09:53:00,
2013-05-23 06:02:00,73.0,73.0,29.97,WNW,295,0.0,0.0,100,0.00,,,0.00,,2013-05-23 10:02:00,
2013-05-23 06:12:00,73.0,73.0,29.98,WNW,294,0.0,0.0,100,0.00,,,0.00,,2013-05-23 10:12:00,
2013-05-23 06:22:00,73.0,73.0,29.98,WNW,294,0.0,0.0,100,0.00,,,0.00,,2013-05-23 10:22:00,
2013-05-23 06:32:00,73.0,73.0,29.97,WNW,294,0.0,1.0,100,0.00,,,0.00,,2013-05-23 10:32:00,
2013-05-23 06:42:00,73.0,73.0,29.97,WNW,294,0.0,1.0,100,0.00,,,0.00,,2013-05-23 10:42:00,
2013-05-23 06:52:00,73.0,73.0,29.98,WNW,294,0.0,0.0,100,0.00,,,0.00,,2013-05-23 10:52:00,
2013-05-23 07:02:00,74.0,74.0,29.98,WNW,294,0.0,0.0,100,0.00,,,0.00,,2013-05-23 11:02:00,
2013-05-23 07:11:00,74.0,74.0,29.98,WNW,294,0.0,0.0,100,0.00,,,0.00,,2013-05-23 11:11:00,
2013-05-23 07:22:00,74.0,74.0,29.99,WNW,292,0.0,0.0,100,0.00,,,0.00,,2013-05-23 11:22:00,
2013-05-23 07:32:00,75.0,75.0,29.99,West,278,0.0,0.0,100,0.00,,,0.00,,2013-05-23 11:32:00,
2013-05-23 07:42:00,75.0,75.0,29.99,West,278,0.0,0.0,100,0.00,,,0.00,,2013-05-23 11:42:00,
2013-05-23 07:52:00,76.0,76.0,29.99,West,274,1.0,4.0,100,0.00,,,0.00,,2013-05-23 11:52:00,
2013-05-23 08:01:00,76.0,76.0,30.00,WNW,288,3.0,4.0,100,0.00,,,0.00,,2013-05-23 12:01:00,
2013-05-23 08:12:00,76.0,76.0,30.00,WNW,288,3.0,4.0,100,0.00,,,0.00,,2013-05-23 12:12:00,
2013-05-23 08:21:00,77.0,77.0,30.00,WNW,295,3.0,5.0,100,0.00,,,0.00,,2013-05-23 12:21:00,
2013-05-23 08:32:00,78.0,78.0,30.01,NNW,330,6.0,6.0,100,0.00,,,0.00,,2013-05-23 12:32:00,
2013-05-23 08:42:00,78.0,78.0,30.01,NNW,330,6.0,6.0,100,0.00,,,0.00,,2013-05-23 12:42:00,
2013-05-23 08:52:00,78.0,78.0,30.02,NW,313,6.0,0.0,100,0.00,,,0.00,,2013-05-23 12:52:00,
2013-05-23 09:01:00,79.0,79.0,30.02,WNW,286,3.0,8.0,100,0.00,,,0.00,,2013-05-23 13:01:00,
2013-05-23 09:11:00,79.0,79.0,30.03,WNW,295,4.0,8.0,100,0.00,,,0.00,,2013-05-23 13:11:00,
2013-05-23 09:22:00,79.0,79.0,30.03,WNW,295,4.0,8.0,100,0.00,,,0.00,,2013-05-23 13:22:00,
2013-05-23 09:32:00,81.0,81.0,30.03,West,268,4.0,7.0,100,0.00,,,0.00,,2013-05-23 13:32:00,
2013-05-23 09:42:00,81.0,81.0,30.03,West,268,4.0,7.0,100,0.00,,,0.00,,2013-05-23 13:42:00,
2013-05-23 09:52:00,81.0,81.0,30.03,West,279,3.0,6.0,100,0.00,,,0.00,,2013-05-23 13:52:00,
2013-05-23 10:02:00,82.0,82.0,30.03,WSW,249,4.0,10.0,100,0.00,,,0.00,,2013-05-23 14:02:00,
2013-05-23 10:11:00,83.0,83.0,30.03,NW,322,5.0,6.0,100,0.00,,,0.00,,2013-05-23 14:11:00,
2013-05-23 10:21:00,83.0,83.0,30.03,NW,322,5.0,6.0,100,0.00,,,0.00,,2013-05-23 14:21:00,
2013-05-23 10:32:00,83.0,83.0,30.03,NNW,327,4.0,5.0,100,0.00,,,0.00,,2013-05-23 14:32:00,
2013-05-23 10:42:00,83.0,83.0,30.03,NNW,327,4.0,5.0,100,0.00,,,0.00,,2013-05-23 14:42:00,
2013-05-23 10:52:00,84.0,84.0,30.03,WSW,256,4.0,5.0,100,0.00,,,0.00,,2013-05-23 14:52:00,
2013-05-23 11:01:00,84.0,84.0,30.03,NW,310,3.0,7.0,100,0.00,,,0.00,,2013-05-23 15:01:00,
2013-05-23 11:11:00,84.0,84.0,30.03,NW,310,3.0,7.0,100,0.00,,,0.00,,2013-05-23 15:11:00,
2013-05-23 11:21:00,86.0,86.0,30.03,North,0,3.0,4.0,100,0.00,,,0.00,,2013-05-23 15:21:00,
2013-05-23 11:33:00,85.0,85.0,30.03,WNW,284,7.0,9.0,100,0.00,,,0.00,,2013-05-23 15:33:00,
2013-05-23 11:42:00,85.0,85.0,30.03,WNW,284,7.0,9.0,100,0.00,,,0.00,,2013-05-23 15:42:00,
2013-05-23 11:53:00,86.0,86.0,30.03,WNW,293,3.0,7.0,100,0.00,,,0.00,,2013-05-23 15:53:00,
2013-05-23 12:03:00,87.0,87.0,30.03,SSW,197,2.0,5.0,100,0.00,,,0.00,,2013-05-23 16:03:00,
2013-05-23 12:12:00,86.0,86.0,30.03,West,269,2.0,6.0,100,0.00,,,0.00,,2013-05-23 16:12:00,
2013-05-23 12:23:00,86.0,86.0,30.03,West,269,2.0,6.0,100,0.00,,,0.00,,2013-05-23 16:23:00,
2013-05-23 12:34:00,88.0,88.0,30.03,West,262,3.0,3.0,100,0.00,,,0.00,,2013-05-23 16:34:00,
2013-05-23 12:42:00,88.0,88.0,30.03,West,262,3.0,3.0,100,0.00,,,0.00,,2013-05-23 16:42:00,
2013-05-23 12:52:00,87.0,87.0,30.03,West,259,0.0,4.0,100,0.00,,,0.00,,2013-05-23 16:52:00,
2013-05-23 13:03:00,88.0,88.0,30.03,NNW,341,2.0,4.0,100,0.00,,,0.00,,2013-05-23 17:03:00,
2013-05-23 13:11:00,89.0,89.0,30.03,WSW,250,3.0,6.0,100,0.00,,,0.00,,2013-05-23 17:11:00,
2013-05-23 13:23:00,89.0,89.0,30.03,WSW,250,3.0,6.0,100,0.00,,,0.00,,2013-05-23 17:23:00,
2013-05-23 13:33:00,88.0,88.0,30.03,West,268,4.0,8.0,100,0.00,,,0.00,,2013-05-23 17:33:00,
2013-05-23 13:43:00,88.0,88.0,30.03,West,268,4.0,8.0,100,0.00,,,0.00,,2013-05-23 17:43:00,
2013-05-23 13:53:00,89.0,89.0,30.03,West,277,8.0,9.0,100,0.00,,,0.00,,2013-05-23 17:53:00,
2013-05-23 14:01:00,90.0,90.0,30.03,West,264,6.0,11.0,100,0.00,,,0.00,,2013-05-23 18:01:00,
2013-05-23 14:11:00,90.0,90.0,30.03,West,264,6.0,11.0,100,0.00,,,0.00,,2013-05-23 18:11:00,
2013-05-23 14:22:00,89.0,89.0,30.02,West,280,5.0,8.0,100,0.00,,,0.00,,2013-05-23 18:22:00,
2013-05-23 14:32:00,89.0,89.0,30.02,West,260,2.0,6.0,100,0.00,,,0.00,,2013-05-23 18:32:00,
2013-05-23 14:42:00,89.0,89.0,30.02,West,260,2.0,6.0,100,0.00,,,0.00,,2013-05-23 18:42:00,
2013-05-23 14:52:00,90.0,90.0,30.02,West,268,10.0,10.0,100,0.00,,,0.00,,2013-05-23 18:52:00,
2013-05-23 15:01:00,89.0,89.0,30.01,WNW,285,10.0,12.0,100,0.00,,,0.00,,2013-05-23 19:01:00,
2013-05-23 15:11:00,89.0,89.0,30.01,WNW,285,10.0,12.0,100,0.00,,,0.00,,2013-05-23 19:11:00,
2013-05-23 15:21:00,90.0,90.0,30.02,WNW,292,8.0,11.0,100,0.00,,,0.00,,2013-05-23 19:21:00,
2013-05-23 16:02:00,90.0,90.0,30.00,West,276,3.0,6.0,100,0.00,,,0.00,,2013-05-23 20:02:00,
2013-05-23 16:11:00,89.0,89.0,29.99,NNW,338,6.0,14.0,100,0.00,,,0.00,,2013-05-23 20:11:00,
2013-05-23 16:21:00,89.0,89.0,29.99,NNW,338,6.0,14.0,100,0.00,,,0.00,,2013-05-23 20:21:00,
2013-05-23 16:32:00,89.0,89.0,29.99,West,260,7.0,11.0,100,0.00,,,0.00,,2013-05-23 20:32:00,
2013-05-23 16:42:00,89.0,89.0,29.99,West,260,7.0,11.0,100,0.00,,,0.00,,2013-05-23 20:42:00,
2013-05-23 17:01:00,89.0,89.0,29.99,WNW,288,5.0,15.0,100,0.00,,,0.00,,2013-05-23 21:01:00,
2013-05-23 17:11:00,89.0,89.0,29.99,WNW,288,5.0,15.0,100,0.00,,,0.00,,2013-05-23 21:11:00,
2013-05-23 17:22:00,90.0,90.0,29.98,NNW,344,8.0,10.0,100,0.00,,,0.00,,2013-05-23 21:22:00,
2013-05-23 17:32:00,90.0,90.0,29.99,WNW,291,2.0,5.0,100,0.00,,,0.00,,2013-05-23 21:32:00,
2013-05-23 17:43:00,90.0,90.0,29.99,WNW,291,2.0,5.0,100,0.00,,,0.00,,2013-05-23 21:43:00,
2013-05-23 17:53:00,89.0,89.0,29.99,WNW,293,5.0,9.0,100,0.00,,,0.00,,2013-05-23 21:53:00,
2013-05-23 18:22:00,90.0,90.0,29.99,WNW,293,1.0,6.0,100,0.00,,,0.00,,2013-05-23 22:22:00,
2013-05-23 18:33:00,88.0,88.0,29.98,West,266,7.0,7.0,100,0.00,,,0.00,,2013-05-23 22:33:00,
2013-05-23 18:42:00,88.0,88.0,29.98,West,266,7.0,7.0,100,0.00,,,0.00,,2013-05-23 22:42:00,
2013-05-23 18:52:00,86.0,86.0,29.99,WSW,254,4.0,8.0,100,0.00,,,0.00,,2013-05-23 22:52:00,
2013-05-23 19:02:00,83.0,83.0,29.98,WNW,284,4.0,13.0,100,0.00,,,0.00,,2013-05-23 23:02:00,
2013-05-23 19:11:00,81.0,81.0,29.98,NW,311,3.0,7.0,100,0.00,,,0.00,,2013-05-23 23:11:00,
2013-05-23 19:21:00,81.0,81.0,29.98,NW,311,3.0,7.0,100,0.00,,,0.00,,2013-05-23 23:21:00,
2013-05-23 19:32:00,81.0,81.0,29.98,WNW,286,4.0,7.0,100,0.00,,,0.00,,2013-05-23 23:32:00,
2013-05-23 19:42:00,81.0,81.0,29.98,WNW,286,4.0,7.0,100,0.00,,,0.00,,2013-05-23 23:42:00,
2013-05-23 19:52:00,81.0,81.0,29.98,WSW,244,3.0,7.0,100,0.00,,,0.00,,2013-05-23 23:52:00,
2013-05-23 20:01:00,80.0,80.0,29.99,WNW,298,5.0,6.0,100,0.00,,,0.00,,2013-05-24 00:01:00,
2013-05-23 20:12:00,80.0,80.0,29.99,WNW,298,5.0,6.0,100,0.00,,,0.00,,2013-05-24 00:12:00,
2013-05-23 20:21:00,79.0,79.0,29.99,NW,317,7.0,9.0,100,0.00,,,0.00,,2013-05-24 00:21:00,
2013-05-23 20:32:00,79.0,79.0,29.99,West,268,3.0,3.0,100,0.00,,,0.00,,2013-05-24 00:32:00,
2013-05-23 20:42:00,79.0,79.0,29.99,West,268,3.0,3.0,100,0.00,,,0.00,,2013-05-24 00:42:00,
2013-05-23 20:52:00,78.0,78.0,30.00,West,266,3.0,4.0,100,0.00,,,0.00,,2013-05-24 00:52:00,
2013-05-23 21:01:00,78.0,78.0,30.01,WNW,285,0.0,2.0,100,0.00,,,0.00,,2013-05-24 01:01:00,
2013-05-23 21:12:00,78.0,78.0,30.01,WNW,285,0.0,2.0,100,0.00,,,0.00,,2013-05-24 01:12:00,
2013-05-23 21:22:00,78.0,78.0,30.01,WNW,288,2.0,5.0,100,0.00,,,0.00,,2013-05-24 01:22:00,
2013-05-23 21:32:00,78.0,78.0,30.01,West,275,0.0,0.0,100,0.00,,,0.00,,2013-05-24 01:32:00,
2013-05-23 21:42:00,78.0,78.0,30.01,West,275,0.0,0.0,100,0.00,,,0.00,,2013-05-24 01:42:00,
2013-05-23 21:52:00,77.0,77.0,30.00,West,274,0.0,0.0,100,0.00,,,0.00,,2013-05-24 01:52:00,
2013-05-23 22:02:00,77.0,77.0,30.01,West,274,1.0,4.0,100,0.00,,,0.00,,2013-05-24 02:02:00,
2013-05-23 22:12:00,77.0,77.0,30.01,West,274,1.0,4.0,100,0.00,,,0.00,,2013-05-24 02:12:00,
2013-05-23 22:21:00,77.0,77.0,30.01,West,274,0.0,0.0,100,0.00,,,0.00,,2013-05-24 02:21:00,
2013-05-23 22:32:00,77.0,77.0,30.01,West,274,0.0,3.0,100,0.00,,,0.00,,2013-05-24 02:32:00,
2013-05-23 22:42:00,77.0,77.0,30.01,West,274,0.0,3.0,100,0.00,,,0.00,,2013-05-24 02:42:00,
2013-05-23 22:52:00,76.0,76.0,30.02,West,273,1.0,3.0,100,0.00,,,0.00,,2013-05-24 02:52:00,
2013-05-23 23:02:00,76.0,76.0,30.02,West,274,0.0,0.0,100,0.00,,,0.00,,2013-05-24 03:02:00,
2013-05-23 23:11:00,76.0,76.0,30.02,West,274,0.0,0.0,100,0.00,,,0.00,,2013-05-24 03:11:00,
2013-05-23 23:22:00,76.0,76.0,30.02,West,274,0.0,0.0,100,0.00,,,0.00,,2013-05-24 03:22:00,
2013-05-23 23:33:00,76.0,76.0,30.02,West,273,0.0,0.0,100,0.00,,,0.00,,2013-05-24 03:33:00,
2013-05-23 23:42:00,76.0,76.0,30.02,West,273,0.0,0.0,100,0.00,,,0.00,,2013-05-24 03:42:00,
2013-05-23 23:53:00,75.0,75.0,30.01,West,273,0.0,0.0,100,0.00,,,0.00,,2013-05-24 03:53:00,